Weather History for Aniak, AK

Change the Weather History Date:

Friday, June 21, 2013

  Actual Average Record
Temperature  
Mean Temperature 52 °F -  
Max Temperature 62 °F 63 °F 75 °F (2001)
Min Temperature 42 °F 44 °F 37 °F (2000)
Degree Days  
Heating Degree Days 13    
Growing Degree Days 2 (Base 50)    
Moisture  
Dew Point 40 °F    
Average Humidity 60    
Maximum Humidity 87    
Minimum Humidity 40    
Precipitation  
Precipitation 0.00 in - - ()
Sea Level Pressure  
Sea Level Pressure 29.89 in    
Wind  
Wind Speed 6 mph (SE)    
Max Wind Speed 14 mph    
Max Gust Speed 22 mph    
Visibility 10 miles    
Events      
Averages and records for this station are not official NWS values.
T = Trace of Precipitation, MM = Missing Value Source: NWS Daily Summary

Daily Weather History Graph

Daily Weather History Graph

Search for Another Location

Airport:

Trip Planner

Search our weather history database for the weather conditions in past years. The results will help you decide how hot, cold, wet, or windy it might be!

Date:

Astronomy

Jun. 21, 2013 Rise Set
Actual Time 4:53 AM AKDT 12:26 AM AKDT
Civil Twilight 3:12 AM AKDT 2:07 AM AKDT
Nautical Twilight Sun does not rise Sun does not rise
Astronomical Twilight Sun does not rise Sun does not rise
Moon 10:17 PM AKDT 3:58 AM AKDT
Length of Visible Light 22h 55m
Length of Day
19h 32m
Waxing Gibbous, 96% of the Moon is Illuminated
Jun 21
Waxing Gibbous
Jun 23
Full
Jun 29
Last Quarter
Jul 7
New
Jul 15
First Quarter

Hourly Weather History & Observations

Time (AKDT) Temp. Windchill Dew Point Humidity Pressure Visibility Wind Dir Wind Speed Gust Speed Precip Events Conditions
12:16 AM 53.6 °F - 39.2 °F 58% 29.89 in 10.0 mi Calm Calm - N/A   Clear
12:36 AM 53.6 °F - 39.2 °F 58% 29.89 in 10.0 mi SSE 3.5 mph - N/A   Clear
12:56 AM 53.6 °F - 39.2 °F 58% 29.89 in 10.0 mi Calm Calm - N/A   Clear
1:16 AM 50.0 °F - 41.0 °F 71% 29.90 in 8.0 mi Calm Calm - N/A   Clear
1:36 AM 50.0 °F - 39.2 °F 66% 29.91 in 10.0 mi Calm Calm - N/A   Clear
1:56 AM 50.0 °F - 39.2 °F 66% 29.91 in 10.0 mi Calm Calm - N/A   Clear
2:16 AM 48.2 °F - 39.2 °F 71% 29.91 in 10.0 mi Calm Calm - N/A   Clear
2:36 AM 48.2 °F - 41.0 °F 76% 29.92 in 10.0 mi NW 3.5 mph - N/A   Clear
2:56 AM 48.2 °F - 42.8 °F 82% 29.92 in 10.0 mi Calm Calm - N/A   Clear
3:16 AM 46.4 °F - 41.0 °F 81% 29.92 in 10.0 mi Calm Calm - N/A   Clear
3:36 AM 44.6 °F - 39.2 °F 81% 29.92 in 10.0 mi Calm Calm - N/A   Clear
3:56 AM 42.8 °F - 37.4 °F 81% 29.92 in 10.0 mi Calm Calm - N/A   Clear
4:16 AM 44.6 °F 43.1 °F 41.0 °F 87% 29.92 in 10.0 mi East 3.5 mph - N/A   Clear
4:36 AM 46.4 °F 44.3 °F 39.2 °F 76% 29.92 in 10.0 mi East 4.6 mph - N/A   Clear
4:56 AM 46.4 °F 43.5 °F 41.0 °F 81% 29.92 in 10.0 mi ESE 5.8 mph - N/A   Clear
5:16 AM 46.4 °F 42.9 °F 39.2 °F 76% 29.92 in 10.0 mi ESE 6.9 mph - N/A   Clear
5:36 AM 46.4 °F 42.9 °F 39.2 °F 76% 29.92 in 10.0 mi ESE 6.9 mph - N/A   Clear
5:56 AM 46.4 °F 42.9 °F 39.2 °F 76% 29.92 in 10.0 mi ESE 6.9 mph - N/A   Clear
6:16 AM 46.4 °F 42.9 °F 39.2 °F 76% 29.91 in 10.0 mi ESE 6.9 mph - N/A   Clear
6:36 AM 46.4 °F 45.2 °F 39.2 °F 76% 29.92 in 10.0 mi ESE 3.5 mph - N/A   Clear
6:56 AM 46.4 °F 44.3 °F 39.2 °F 76% 29.92 in 10.0 mi ESE 4.6 mph - N/A   Clear
7:16 AM 46.4 °F 42.9 °F 37.4 °F 71% 29.92 in 10.0 mi SE 6.9 mph - N/A   Clear
7:36 AM 46.4 °F 44.3 °F 39.2 °F 76% 29.92 in 10.0 mi ESE 4.6 mph - N/A   Clear
7:56 AM 48.2 °F - 39.2 °F 71% 29.92 in 10.0 mi ESE 5.8 mph - N/A   Clear
8:16 AM 50.0 °F - 39.2 °F 66% 29.91 in 10.0 mi ESE 5.8 mph - N/A   Clear
8:36 AM 51.8 °F - 39.2 °F 62% 29.91 in 10.0 mi ESE 9.2 mph - N/A   Clear
8:56 AM 51.8 °F - 39.2 °F 62% 29.91 in 10.0 mi ESE 10.4 mph - N/A   Clear
9:16 AM 51.8 °F - 39.2 °F 62% 29.91 in 10.0 mi SE 8.1 mph - N/A   Clear
9:36 AM 51.8 °F - 39.2 °F 62% 29.91 in 10.0 mi SE 4.6 mph - N/A   Partly Cloudy
9:56 AM 53.6 °F - 39.2 °F 58% 29.91 in 10.0 mi ESE 8.1 mph - N/A   Scattered Clouds
10:16 AM 55.4 °F - 39.2 °F 54% 29.91 in 10.0 mi SE 8.1 mph 17.3 mph N/A   Partly Cloudy
10:36 AM 55.4 °F - 39.2 °F 54% 29.91 in 10.0 mi SE 12.7 mph 18.4 mph N/A   Clear
10:56 AM 55.4 °F - 39.2 °F 54% 29.91 in 10.0 mi ESE 12.7 mph 20.7 mph N/A   Clear
11:16 AM 57.2 °F - 39.2 °F 51% 29.91 in 10.0 mi SE 9.2 mph 19.6 mph N/A   Scattered Clouds
11:36 AM 55.4 °F - 37.4 °F 51% 29.91 in 10.0 mi SSE 9.2 mph 19.6 mph N/A   Overcast
11:56 AM 55.4 °F - 39.2 °F 54% 29.91 in 10.0 mi SE 12.7 mph 19.6 mph N/A   Overcast
12:16 PM 55.4 °F - 39.2 °F 54% 29.91 in 10.0 mi ESE 12.7 mph 18.4 mph N/A   Overcast
12:36 PM 55.4 °F - 39.2 °F 54% 29.91 in 10.0 mi SE 9.2 mph 18.4 mph N/A   Overcast
12:56 PM 55.4 °F - 39.2 °F 54% 29.91 in 10.0 mi SE 13.8 mph 18.4 mph N/A   Mostly Cloudy
1:16 PM 57.2 °F - 39.2 °F 51% 29.91 in 10.0 mi SSE 9.2 mph 18.4 mph N/A   Mostly Cloudy
1:36 PM 55.4 °F - 39.2 °F 54% 29.91 in 10.0 mi SSE 10.4 mph - N/A   Overcast
1:56 PM 55.4 °F - 39.2 °F 54% 29.91 in 10.0 mi SE 11.5 mph 16.1 mph N/A   Overcast
2:16 PM 57.2 °F - 39.2 °F 51% 29.91 in 10.0 mi SE 9.2 mph 17.3 mph N/A   Overcast
2:36 PM 57.2 °F - 39.2 °F 51% 29.90 in 10.0 mi SE 12.7 mph 21.9 mph N/A   Overcast
2:56 PM 57.2 °F - 39.2 °F 51% 29.90 in 10.0 mi SE 12.7 mph 18.4 mph N/A   Mostly Cloudy
3:16 PM 59.0 °F - 39.2 °F 48% 29.89 in 10.0 mi SSE 9.2 mph 19.6 mph N/A   Partly Cloudy
3:36 PM 57.2 °F - 39.2 °F 51% 29.89 in 10.0 mi SE 9.2 mph - N/A   Mostly Cloudy
3:56 PM 57.2 °F - 39.2 °F 51% 29.89 in 10.0 mi SSE 11.5 mph 19.6 mph N/A   Scattered Clouds
4:16 PM 57.2 °F - 39.2 °F 51% 29.89 in 10.0 mi SE 9.2 mph 21.9 mph N/A   Partly Cloudy
4:36 PM 57.2 °F - 39.2 °F 51% 29.88 in 10.0 mi SE 10.4 mph 19.6 mph N/A   Partly Cloudy
4:56 PM 57.2 °F - 39.2 °F 51% 29.88 in 10.0 mi SE 11.5 mph 18.4 mph N/A   Mostly Cloudy
5:16 PM 59.0 °F - 39.2 °F 48% 29.87 in 10.0 mi SSE 10.4 mph 18.4 mph N/A   Overcast
5:36 PM 59.0 °F - 39.2 °F 48% 29.87 in 10.0 mi SSE 6.9 mph 19.6 mph N/A   Mostly Cloudy
5:56 PM 59.0 °F - 39.2 °F 48% 29.87 in 10.0 mi SSE 10.4 mph 21.9 mph N/A   Mostly Cloudy
6:16 PM 59.0 °F - 39.2 °F 48% 29.86 in 10.0 mi SE 10.4 mph - N/A   Overcast
6:36 PM 60.8 °F - 39.2 °F 45% 29.85 in 10.0 mi SSE 10.4 mph 19.6 mph N/A   Overcast
6:56 PM 60.8 °F - 41.0 °F 48% 29.85 in 10.0 mi SE 12.7 mph 21.9 mph N/A   Mostly Cloudy
7:16 PM 60.8 °F - 41.0 °F 48% 29.84 in 10.0 mi SE 11.5 mph 18.4 mph N/A   Mostly Cloudy
7:36 PM 57.2 °F - 41.0 °F 55% 29.84 in 10.0 mi ESE 10.4 mph 20.7 mph N/A   Overcast
7:56 PM 57.2 °F - 41.0 °F 55% 29.83 in 10.0 mi SE 9.2 mph 17.3 mph N/A   Overcast
8:16 PM 57.2 °F - 41.0 °F 55% 29.83 in 10.0 mi SSE 13.8 mph 21.9 mph N/A   Overcast
8:36 PM 57.2 °F - 41.0 °F 55% 29.83 in 10.0 mi SE 13.8 mph 21.9 mph N/A   Overcast
8:56 PM 57.2 °F - 41.0 °F 55% 29.82 in 10.0 mi SE 11.5 mph 19.6 mph N/A   Mostly Cloudy
9:16 PM 55.4 °F - 41.0 °F 58% 29.82 in 10.0 mi SE 11.5 mph 18.4 mph N/A   Mostly Cloudy
9:36 PM 55.4 °F - 41.0 °F 58% 29.81 in 10.0 mi SE 10.4 mph 21.9 mph N/A   Overcast
9:56 PM 55.4 °F - 41.0 °F 58% 29.81 in 10.0 mi SE 11.5 mph 17.3 mph N/A   Overcast
10:16 PM 55.4 °F - 41.0 °F 58% 29.81 in 10.0 mi SE 10.4 mph 19.6 mph N/A   Overcast
10:36 PM 55.4 °F - 41.0 °F 58% 29.81 in 10.0 mi SE 9.2 mph 18.4 mph N/A   Overcast
10:56 PM 55.4 °F - 41.0 °F 58% 29.82 in 10.0 mi ESE 10.4 mph 20.7 mph N/A   Overcast
11:16 PM 55.4 °F - 41.0 °F 58% 29.81 in 10.0 mi ESE 9.2 mph 18.4 mph N/A   Overcast
11:36 PM 55.4 °F - 41.0 °F 58% 29.81 in 10.0 mi SE 12.7 mph 17.3 mph N/A   Mostly Cloudy
11:56 PM 55.4 °F - 41.0 °F 58% 29.81 in 10.0 mi SE 6.9 mph - N/A   Overcast